Theta_e
316 316 316 316 316 313 311 308 307 306 306 306 307 307 307 307 307 303 305 303 306 307 308 308 308 309 308 309 309 312 310 311 314 312 312 311 313 314 315 315 318 319 321 322 325 330 332 341 341 344 349 348 346 347
316 316 316 316 314 311 308 307 306 307 307 306 307 308 306 307 308 303 304 304 303 303 305 306 306 307 308 308 308 309 311 311 314 314 317 315 320 320 319 315 319 322 323 324 325 327 343 340 341 340 341 344 343 343
316 314 315 314 312 307 307 307 307 307 307 307 308 308 306 307 308 304 304 304 303 305 305 306 309 308 307 307 307 309 310 310 313 311 311 312 317 320 322 322 326 323 325 325 331 328 329 338 335 333 335 339 340 342
314 314 313 312 305 304 307 307 307 308 307 307 308 309 307 306 308 305 304 304 303 304 307 308 308 309 309 308 308 307 308 310 310 310 310 312 314 316 319 320 325 328 330 333 330 335 335 334 332 331 332 337 340 342
314 312 310 305 304 307 308 308 307 308 307 307 308 309 307 306 307 306 304 304 303 304 308 308 307 309 309 308 308 307 307 311 311 311 311 313 313 315 317 318 322 328 331 331 335 330 332 332 330 331 336 340 340 345
312 309 306 303 308 309 308 308 308 308 308 308 309 308 306 306 306 305 306 304 304 302 304 309 309 311 310 309 309 308 309 311 310 310 312 312 312 315 317 319 324 323 323 324 325 327 330 330 331 335 337 339 341 343
309 308 304 309 311 309 308 308 308 307 307 308 307 306 307 306 305 306 307 306 304 303 305 308 311 312 311 309 310 309 308 310 310 312 312 312 313 314 315 316 321 321 319 323 325 327 330 329 334 335 335 336 338 338
310 307 305 313 312 310 308 308 308 307 307 307 306 306 306 306 305 306 305 304 304 303 305 308 311 312 311 312 311 310 309 310 311 311 311 313 314 315 317 315 319 320 321 324 324 324 326 327 330 332 335 336 337 339
310 306 307 315 314 313 310 308 307 307 306 306 306 306 306 306 308 307 305 304 303 304 306 307 311 314 312 316 315 316 312 313 311 312 312 315 314 320 320 321 320 320 322 323 323 323 326 327 327 328 333 332 334 339
311 307 311 315 315 314 312 309 308 307 307 306 307 309 311 308 305 306 306 307 306 306 305 307 308 311 312 315 316 317 315 315 316 313 312 315 312 313 313 316 317 319 321 323 324 325 326 327 325 327 332 330 332 338
312 308 312 316 314 314 311 310 309 308 307 309 314 315 309 306 305 306 307 308 309 310 309 309 309 312 312 314 316 317 316 319 318 318 318 318 315 312 312 313 314 316 320 320 321 323 323 325 325 325 330 330 331 334
312 310 311 317 316 314 313 311 311 310 317 313 315 312 308 310 310 309 310 306 306 316 312 313 314 313 313 317 317 317 317 313 317 315 314 317 312 312 311 311 312 316 319 322 320 321 322 323 324 324 326 329 331 332
312 311 313 316 317 317 314 312 311 311 312 317 318 320 321 323 323 323 323 324 322 314 315 315 316 315 316 315 315 315 317 319 316 317 318 315 311 309 309 311 314 319 322 322 320 320 321 322 323 322 326 329 329 331
311 311 314 315 317 319 316 314 312 311 311 326 321 323 323 321 320 323 323 324 322 318 317 316 314 315 312 315 312 317 318 318 316 313 312 312 311 310 312 314 315 319 323 324 322 323 323 323 323 323 324 326 330 330
311 312 315 316 316 318 316 315 315 313 322 321 321 325 320 319 318 318 318 320 323 320 319 317 315 314 315 314 317 318 318 318 315 315 314 312 311 310 312 314 315 316 319 319 319 321 322 323 324 325 324 325 327 328
311 317 319 316 316 319 317 317 320 323 322 320 320 321 321 319 318 318 317 318 318 323 322 324 323 321 320 317 316 315 316 317 317 315 313 314 313 313 313 313 314 313 315 315 315 316 317 317 318 319 319 320 321 323
314 321 318 316 317 319 319 321 324 320 321 321 321 320 320 320 319 318 317 317 317 317 316 314 314 318 317 313 320 317 316 317 318 312 312 316 316 315 315 314 314 313 313 313 313 312 314 315 315 316 318 317 316 317
316 316 313 317 318 322 327 324 321 320 320 321 322 322 320 320 319 318 317 317 317 316 316 314 313 312 312 312 311 311 310 310 311 312 312 313 315 313 312 314 313 314 315 315 314 313 311 312 313 315 315 316 315 315
317 312 315 318 318 320 325 322 322 323 322 320 321 321 321 321 321 319 318 318 317 316 315 314 313 313 313 313 311 310 311 310 310 310 311 311 311 311 310 310 310 311 312 312 311 311 314 315 315 315 314 314 314 313
313 314 318 318 319 326 326 326 323 326 324 321 322 321 322 322 323 321 319 319 318 317 316 316 315 314 313 313 312 311 310 310 309 309 309 308 307 309 309 308 309 309 309 310 311 310 311 310 310 310 312 313 313 311
316 325 321 321 327 328 326 325 327 327 322 326 324 321 324 323 322 321 320 320 318 317 317 317 317 317 315 313 312 311 311 309 309 308 308 308 307 306 307 306 305 305 305 305 306 307 307 308 307 308 309 309 308 309
320 322 322 327 327 326 326 323 324 324 326 325 327 326 326 327 324 323 322 321 320 319 317 317 316 317 317 314 313 312 311 310 308 307 306 306 307 307 306 305 304 304 303 303 303 303 304 304 304 305 306 307 306 306
317 323 324 323 325 327 325 323 324 327 327 326 327 326 326 327 327 323 324 323 322 319 319 319 318 315 315 315 314 312 310 310 309 308 306 306 305 305 305 304 303 302 302 302 301 302 301 301 301 302 304 304 303 303
321 323 325 323 325 322 324 325 326 325 325 325 325 326 326 326 325 324 324 323 322 321 321 322 319 318 318 317 316 314 312 309 309 308 306 305 305 304 303 303 303 301 300 301 300 300 300 300 300 300 301 301 301 300
324 323 324 318 323 325 324 324 325 326 326 325 325 324 326 324 327 325 324 323 324 322 321 320 318 317 314 314 314 313 311 308 307 307 305 305 304 303 302 302 302 300 299 300 299 299 298 299 299 299 299 299 299 299
321 324 324 324 324 324 324 325 324 325 325 325 322 324 323 327 326 324 318 324 324 321 320 318 316 315 316 313 313 311 310 308 307 306 305 304 303 303 302 302 301 299 299 299 298 298 297 298 298 298 298 299 298 299
321 322 325 324 324 325 325 324 325 326 324 323 324 325 325 325 326 326 322 322 323 320 317 316 314 313 313 312 311 310 309 307 306 304 304 303 302 301 300 300 300 298 298 298 297 297 296 297 297 298 298 298 298 298
320 322 322 325 325 324 324 324 325 327 324 323 324 326 327 327 329 324 325 322 321 319 317 316 314 312 311 310 308 306 305 304 304 303 303 302 301 300 299 299 298 298 297 297 296 296 296 296 296 296 296 296 296 297
320 320 321 324 326 325 324 324 324 324 325 322 323 326 327 326 325 323 322 321 320 318 317 316 315 312 310 308 306 304 303 302 302 303 303 302 301 300 299 298 298 297 297 297 295 296 296 296 296 296 296 296 296 296
320 321 323 323 326 324 325 324 324 324 324 322 322 323 324 322 323 321 322 321 320 319 317 316 316 314 311 309 308 305 303 302 300 300 301 301 299 298 298 297 297 297 297 297 297 297 296 296 296 296 295 295 295 295
322 321 322 324 325 325 324 324 325 323 322 323 324 323 325 327 325 324 324 323 322 319 318 317 316 313 310 307 306 306 303 301 299 298 298 298 298 298 297 297 297 297 297 297 297 296 296 296 296 296 295 295 295 295
321 321 324 325 326 324 324 324 323 322 323 325 324 324 325 326 327 320 318 323 321 319 317 317 314 308 305 302 301 300 300 298 297 296 296 296 296 297 297 297 297 297 297 297 297 297 297 297 297 297 296 296 296 296
322 323 324 325 324 323 325 323 323 323 323 325 325 325 325 324 329 327 323 321 320 319 317 314 309 305 304 302 299 297 295 293 292 292 292 293 294 295 296 297 297 297 298 298 297 297 297 297 297 297 297 297 296 296
Wind_Speed
12 14 17 21 25 27 27 27 22 18 16 13 11 9 9 8 19 20 6 10 5 3 10 13 15 14 12 10 7 4 1 4 10 6 10 11 10 18 22 25 24 17 14 13 15 12 15 18 8 3 10 15 16 17
14 17 20 23 27 28 27 25 21 17 15 11 9 8 7 6 21 22 5 9 12 2 5 19 18 19 16 13 10 3 5 1 3 4 5 4 5 12 17 14 24 19 16 13 14 14 12 17 14 13 14 13 15 14
16 20 23 27 29 29 26 22 17 17 13 8 7 7 7 7 20 24 9 9 7 2 6 11 9 9 17 18 18 4 3 4 4 6 3 3 8 12 10 5 13 3 11 17 12 18 21 15 15 14 13 14 13 15
19 23 26 29 30 28 23 18 17 16 10 6 4 4 4 6 14 25 13 13 5 2 3 5 6 4 3 9 12 19 13 4 2 2 0 4 7 5 6 6 7 8 12 8 16 13 9 14 14 11 11 12 15 15
22 26 29 31 30 25 20 19 16 12 6 3 2 0 1 3 5 27 12 12 9 1 3 7 23 13 13 11 8 10 15 6 1 3 2 4 6 5 7 9 2 6 8 5 4 12 10 11 12 12 11 13 14 15
25 27 31 32 26 21 20 17 10 7 3 4 4 5 4 3 6 8 2 5 13 7 2 4 7 3 4 12 13 11 11 4 4 2 6 5 7 2 4 4 6 11 9 9 5 16 13 8 11 11 13 13 15 16
26 29 32 27 23 21 18 10 7 4 7 8 8 8 9 11 11 3 1 0 8 12 2 4 3 1 12 4 13 7 11 5 4 2 5 9 8 2 5 9 7 5 13 6 15 17 10 17 16 21 23 13 16 17
27 30 29 23 24 21 12 8 5 8 9 11 11 12 13 12 7 3 5 8 12 2 2 3 5 3 4 3 5 8 5 6 5 4 6 6 7 4 5 9 9 8 8 9 10 17 14 12 17 20 20 16 15 16
28 30 25 24 21 18 11 6 8 10 11 12 12 15 8 3 2 4 8 11 4 2 2 2 4 4 5 4 2 3 3 4 4 6 4 2 1 4 12 14 15 11 8 9 11 14 16 14 16 19 18 14 13 13
28 29 20 19 19 17 10 9 11 12 11 13 8 4 3 3 14 10 3 2 1 0 1 2 3 4 6 4 3 1 4 5 4 4 4 5 2 8 16 16 14 13 15 14 11 11 18 12 11 16 17 11 12 12
28 29 16 16 16 14 6 7 10 11 10 4 5 2 6 13 2 2 1 2 2 2 3 3 4 5 4 4 2 3 3 3 4 2 3 3 4 9 16 19 19 18 13 10 10 10 10 11 10 14 15 16 9 12
27 28 13 16 14 10 5 3 6 6 3 4 5 9 7 4 3 3 1 1 2 2 2 3 3 5 4 4 2 1 3 5 4 3 3 2 2 14 15 19 19 17 16 16 8 10 11 9 12 13 14 13 14 14
26 26 12 14 20 16 8 4 7 9 5 5 5 6 6 6 3 5 6 3 2 5 5 3 3 3 1 2 2 4 4 3 6 2 2 4 11 16 17 15 16 16 14 13 11 11 10 11 11 12 11 17 22 16
26 22 11 13 21 20 14 8 5 3 5 5 1 6 6 4 6 7 6 4 3 3 3 3 1 3 3 4 2 4 4 3 5 6 6 8 14 18 17 13 12 13 11 10 6 9 10 11 11 14 14 18 17 18
26 19 9 14 21 18 14 12 6 4 6 3 5 4 5 8 10 11 9 6 7 7 4 2 1 2 1 2 4 4 6 5 3 2 4 6 9 13 15 17 17 14 11 14 17 15 15 19 16 17 20 19 20 22
25 9 4 18 20 18 10 12 8 5 4 3 5 9 10 10 11 12 12 11 5 5 4 3 1 1 4 3 4 5 5 4 4 2 3 2 4 7 9 10 12 18 15 18 22 20 21 21 17 16 20 22 22 20
15 2 15 23 18 14 8 5 6 3 2 3 4 8 8 9 9 9 9 10 14 10 11 9 8 6 2 4 3 2 4 4 4 6 7 6 6 10 11 3 4 7 12 15 19 22 21 21 21 18 12 19 22 22
6 13 20 16 17 12 7 5 3 3 2 2 4 5 7 6 7 6 8 8 9 11 10 10 11 13 7 13 10 8 7 7 6 6 5 6 7 9 14 12 14 9 7 6 9 13 16 12 13 11 16 18 18 20
22 25 14 10 13 5 4 1 2 4 4 2 2 4 2 4 4 6 5 7 12 11 8 5 4 9 8 7 8 7 7 7 7 6 6 8 7 9 13 16 15 12 14 11 14 10 5 4 6 9 9 14 13 16
17 13 8 8 7 5 4 2 2 4 4 3 4 2 1 3 2 4 5 6 6 6 4 3 5 7 7 7 7 6 7 8 6 7 8 8 13 11 13 14 15 17 17 20 16 22 18 18 27 23 10 14 15 15
10 1 10 6 4 8 4 4 3 4 4 4 4 1 3 4 1 2 4 5 5 7 6 4 3 5 6 7 10 10 8 8 7 6 8 6 12 13 14 16 18 18 17 16 15 17 18 16 18 19 20 18 20 20
4 9 5 8 5 5 4 5 4 5 0 1 9 1 2 5 3 2 2 0 5 5 4 6 5 4 3 3 3 6 7 10 6 10 12 12 7 8 10 13 16 16 18 18 18 17 18 19 16 14 14 12 17 18
6 3 5 5 3 1 5 4 5 4 4 4 1 1 1 1 3 4 2 4 2 4 7 8 6 3 2 5 4 4 6 11 6 8 12 13 13 13 14 15 15 16 16 18 20 20 19 20 19 20 16 13 13 12
5 4 4 4 8 4 4 5 6 5 3 5 2 9 3 3 5 1 1 1 5 6 5 6 11 7 7 6 6 6 6 7 9 10 12 12 12 14 15 15 15 17 19 18 19 19 19 19 19 19 19 17 17 18
3 5 3 5 5 6 7 5 5 8 11 7 10 1 4 1 1 4 4 3 5 4 2 4 2 4 1 4 11 10 7 11 11 7 12 11 11 13 15 15 15 19 19 17 19 19 20 19 17 17 17 15 16 17
4 6 5 5 8 7 4 4 4 6 7 9 2 2 2 2 4 4 3 5 4 5 3 2 5 3 5 7 7 8 9 8 9 7 5 7 10 12 13 11 12 17 18 17 18 18 19 19 18 17 17 19 17 18
4 7 7 9 8 7 4 2 0 6 9 3 3 1 4 2 5 6 4 11 6 10 6 10 8 8 7 10 8 6 3 2 6 10 11 9 13 14 15 14 13 14 13 15 17 18 17 16 17 17 20 17 18 18
8 5 13 10 8 5 10 8 8 11 6 2 4 2 3 7 4 3 7 7 11 10 11 11 10 10 10 10 10 10 10 9 9 10 10 11 15 15 14 13 12 8 8 10 13 16 13 14 17 17 18 17 17 19
10 11 10 11 9 7 7 8 8 2 6 3 2 3 4 7 2 5 7 9 9 8 9 9 7 8 9 9 8 10 11 12 10 8 9 8 11 14 13 13 13 13 13 7 4 12 14 12 8 11 18 17 17 18
11 10 11 11 12 7 9 7 5 1 1 4 4 1 3 4 17 5 5 6 9 9 12 12 7 5 4 6 9 9 10 11 11 9 8 8 11 11 12 12 12 12 12 12 14 16 16 16 11 14 17 14 15 16
11 10 11 9 10 10 8 2 8 2 4 5 5 4 5 6 10 16 19 6 5 14 11 10 9 6 6 7 6 12 14 11 10 10 9 9 9 10 10 10 10 11 11 12 13 15 16 14 15 14 13 13 13 13
10 12 10 12 9 6 4 4 6 7 5 5 6 3 4 3 5 9 17 12 6 10 11 12 11 10 11 12 13 16 16 12 10 10 10 10 9 9 9 9 10 10 11 12 11 13 16 17 16 17 17 18 18 18
9 7 10 11 6 4 5 5 3 3 4 6 6 6 10 1 5 4 6 8 6 13 14 17 16 15 15 15 15 17 15 15 15 15 15 15 14 13 11 9 10 10 9 12 14 13 15 15 16 17 17 17 18 18
Wind_Direction
335 331 326 321 324 329 327 325 326 323 312 299 283 277 262 258 212 198 231 236 223 273 291 306 297 297 309 304 325 31 358 323 273 222 250 252 263 256 235 225 208 197 206 214 230 227 241 10 30 296 13 18 13 8
337 331 324 330 332 330 328 327 327 323 318 303 281 272 257 247 212 195 200 213 212 207 280 309 287 277 276 273 286 281 213 95 308 296 42 337 284 294 242 224 197 204 204 208 210 223 83 76 60 37 13 13 7 2
336 332 335 335 333 332 329 331 332 329 324 302 277 267 241 233 210 193 185 177 188 306 280 260 258 274 241 244 243 239 358 349 36 15 325 260 276 300 3 40 356 236 188 212 216 236 259 66 51 16 5 359 356 2
338 339 338 336 335 333 337 338 338 337 331 315 299 277 249 236 218 195 184 187 175 38 289 300 273 266 243 241 235 211 231 84 73 71 306 264 269 291 314 280 327 308 311 324 232 25 1 41 21 358 355 341 16 358
344 341 340 338 337 340 344 343 342 344 346 354 2 121 214 231 208 198 184 181 195 275 317 296 302 266 262 207 213 229 235 157 300 308 236 244 276 14 293 262 2 334 24 12 349 346 343 354 332 355 352 8 8 354
343 344 342 340 343 345 348 349 353 359 56 85 77 100 96 127 143 123 82 225 212 197 299 297 325 296 297 191 196 209 224 145 204 245 271 268 275 307 284 320 118 24 343 327 306 325 307 335 342 355 342 17 16 13
347 346 344 346 349 351 356 3 13 75 96 99 99 95 96 112 119 69 43 22 191 167 247 291 292 21 258 188 188 217 200 175 212 254 266 277 291 338 275 272 95 19 310 327 331 325 343 350 360 358 355 9 17 18
349 347 347 349 351 356 5 16 73 104 112 115 114 109 100 128 99 81 83 111 144 154 286 300 297 315 46 231 198 196 202 179 216 231 255 271 304 243 250 263 2 16 337 333 347 329 328 356 359 358 356 19 21 13
349 349 349 355 359 4 14 65 106 117 124 124 125 112 96 38 73 75 134 140 141 13 330 298 308 308 117 260 207 333 200 184 253 228 225 270 233 274 350 350 350 339 316 310 320 330 318 17 0 340 0 12 15 23
350 351 352 5 4 13 33 92 110 121 131 143 147 199 123 91 123 110 124 179 246 308 182 250 293 276 304 11 300 330 215 186 176 258 259 212 79 286 345 341 329 320 300 308 312 337 338 341 339 329 353 358 11 40
351 352 353 8 9 17 48 115 134 144 154 215 212 77 110 146 76 34 63 341 351 248 192 232 248 284 283 320 264 262 284 197 166 114 250 55 357 323 325 330 322 308 283 290 290 297 305 313 321 327 334 339 3 31
349 351 348 13 8 7 13 183 180 213 313 333 80 123 142 200 196 134 92 215 241 250 224 246 281 283 303 332 284 47 328 357 61 99 12 15 279 334 331 318 315 307 293 283 254 284 297 319 321 324 320 340 339 18
347 349 340 353 7 2 332 280 254 254 298 229 218 204 188 181 345 351 9 101 210 188 216 226 287 307 266 350 338 338 329 348 126 148 50 17 338 330 326 321 319 315 295 271 264 270 301 305 305 313 321 331 347 358
343 342 332 350 1 356 343 319 264 263 249 238 249 13 4 313 1 24 37 354 109 182 168 144 89 12 8 336 11 303 342 317 37 20 11 350 339 329 333 341 348 346 345 325 328 312 298 317 313 312 326 346 6 356
339 335 323 350 351 345 337 319 295 240 259 35 15 334 2 27 35 9 14 46 131 104 192 173 151 137 144 351 340 343 8 49 30 344 334 343 345 334 339 359 7 8 24 43 38 33 31 32 20 19 9 1 359 358
338 334 347 332 336 341 322 318 286 244 277 65 26 12 15 23 32 24 10 16 57 155 193 224 131 213 70 69 26 15 353 29 350 46 91 353 313 324 329 348 16 9 17 43 40 30 39 37 32 34 27 21 19 13
339 331 328 323 327 339 304 293 253 280 310 103 30 14 6 24 40 39 26 15 17 19 31 22 33 52 121 38 95 151 353 322 307 68 39 20 24 358 343 12 100 48 33 47 63 47 36 34 32 27 29 21 19 17
301 314 319 320 331 340 253 233 287 295 310 62 72 53 17 17 21 41 48 35 47 31 22 50 29 52 56 31 35 30 23 11 52 75 59 31 10 24 350 347 1 44 74 79 76 80 78 61 52 38 37 33 30 24
311 320 324 318 329 312 279 190 310 271 230 61 92 104 52 40 34 345 50 64 73 60 49 30 11 39 43 32 22 27 13 10 0 38 78 58 24 57 9 0 359 20 16 39 28 48 85 128 118 92 74 71 54 32
312 314 305 301 297 265 256 170 235 282 308 29 288 22 304 28 52 331 45 40 58 52 70 60 29 45 42 35 15 44 19 355 14 7 9 30 18 30 40 19 360 9 22 4 17 32 34 26 18 9 42 45 62 46
327 315 321 307 239 224 288 301 39 330 320 356 288 244 167 261 71 6 29 22 54 57 59 82 116 93 66 49 28 5 35 10 357 29 351 8 19 12 27 21 15 16 21 19 4 16 26 15 14 11 37 39 43 31
269 319 289 233 266 209 241 247 297 320 306 32 293 134 188 204 241 144 359 313 61 78 59 73 61 112 150 62 46 29 358 327 57 18 4 351 29 14 16 27 23 16 10 13 12 7 9 11 14 2 5 21 53 42
293 261 228 248 254 245 256 265 258 238 242 234 24 294 124 228 232 99 49 20 1 111 85 96 129 163 137 195 195 77 18 331 10 45 7 354 11 23 11 19 29 22 5 10 6 5 4 1 358 354 8 13 23 19
263 251 245 234 192 233 218 214 241 254 268 279 242 261 29 310 97 139 210 137 118 116 123 167 202 189 204 251 240 132 22 336 348 47 29 1 9 14 14 10 25 27 0 7 7 0 2 358 0 2 353 11 9 348
243 262 161 263 273 237 251 228 262 256 252 309 285 147 196 271 96 210 116 175 172 129 173 162 206 282 342 69 84 101 42 16 11 19 27 6 16 10 7 6 23 30 357 10 6 2 0 354 4 358 354 10 8 336
222 221 171 233 209 214 232 215 235 266 266 280 276 235 185 198 97 174 198 269 148 141 180 48 357 359 105 63 47 33 44 43 11 359 10 1 36 22 6 8 19 17 352 20 5 7 358 346 358 350 353 2 18 8
238 239 205 238 282 298 267 290 47 265 278 270 275 221 334 276 152 177 203 254 117 94 76 52 38 38 43 59 68 56 10 8 68 360 356 49 42 35 16 17 31 10 359 17 6 12 354 351 354 354 6 356 16 9
235 245 237 219 206 232 260 262 248 236 257 169 249 148 96 132 268 88 104 111 104 106 90 89 67 50 55 59 52 46 35 18 44 23 6 42 43 34 21 20 32 30 50 41 22 17 10 2 0 5 4 4 4 10
235 228 241 259 230 211 235 245 252 344 341 287 119 155 187 201 207 127 135 137 139 161 140 119 118 125 130 115 83 62 47 31 29 32 30 27 31 28 25 24 22 23 13 27 58 33 9 347 0 6 4 13 14 13
224 227 222 228 237 222 239 238 233 215 330 15 341 243 65 74 286 100 137 175 176 154 146 153 129 73 58 106 111 98 81 60 47 32 29 35 34 31 30 29 30 29 22 18 22 19 17 20 27 22 17 9 8 358
218 224 220 214 226 230 226 207 309 45 291 266 258 301 122 178 133 36 338 298 172 164 147 133 113 78 55 58 58 128 103 82 70 58 46 49 44 40 37 35 30 29 21 20 24 27 11 16 20 16 20 11 6 353
209 221 212 225 237 218 149 207 242 248 227 255 250 121 315 206 117 189 244 242 197 125 115 132 119 100 96 97 95 86 97 100 91 78 68 63 54 34 36 37 32 27 22 23 17 26 23 15 17 12 8 6 0 359
207 201 217 226 224 195 206 218 246 254 263 260 273 186 228 174 138 166 185 184 183 152 136 120 123 124 119 116 115 111 111 109 106 100 93 85 79 69 57 48 36 30 20 24 27 27 32 26 25 17 18 10 5 3